Location: Carnetin
(48.9010°N, 2.7059°E)
Time: 05:06:00
(UTC+00:00)

USA 229 - Pass Details

Date: 31 May 2022
Orbit: 938 x 1274 km, 63.4° (Epoch: 24 May)

Event Time Altitude Azimuth Distance (km) Brightness Sun altitude
Rises 20:30:58 0° 310° (NW) 3,856 9.2 -6.8°
Reaches altitude 10° 20:33:53 10° 320° (NW) 2,952 7.8 -7.1°
Maximum altitude 20:40:10 33° 23° (NNE) 1,856 5.2 -7.8°
Drops below altitude 10° 20:46:51 10° 85° (E) 3,160 5.8 -8.5°
Sets 20:50:04 0° 95° (E) 4,165 6.4 -8.9°
